Weather History for Dublin, Ireland

Change the Weather History Date:

Monday, February 13, 2012

  Actual Average Record
Temperature  
Mean Temperature 43 °F -  
Max Temperature 46 °F 47 °F 59 °F (1998)
Min Temperature 40 °F 37 °F 28 °F (2003)
Degree Days  
Heating Degree Days 22    
Moisture  
Dew Point 40 °F    
Average Humidity 88    
Maximum Humidity 100    
Minimum Humidity 67    
Precipitation  
Precipitation 0.00 in 0.07 in - ()
Sea Level Pressure  
Sea Level Pressure 30.49 in    
Wind  
Wind Speed 12 mph ()    
Max Wind Speed 24 mph    
Max Gust Speed 37 mph    
Visibility 6.4 miles    
Events Rain    
Averages and records for this station are not official NWS values.
T = Trace of Precipitation, MM = Missing Value Source: Averaged Metar Reports

Daily Weather History Graph

Daily Weather History Graph

Search for Another Location

Airport:

Trip Planner

Search our weather history database for the weather conditions in past years. The results will help you decide how hot, cold, wet, or windy it might be!

Date:

Astronomy

Feb. 13, 2012 Rise Set
Actual Time 7:48 AM GMT 5:30 PM GMT
Civil Twilight 7:12 AM GMT 6:07 PM GMT
Nautical Twilight 6:31 AM GMT 6:48 PM GMT
Astronomical Twilight 5:51 AM GMT 7:28 PM GMT
Moon 12:13 AM GMT (2/13) 9:32 AM GMT (2/13)
Length of Visible Light 10h 54m
Length of Day
9h 41m
Waning Gibbous, 64% of the Moon is Illuminated
Feb 13
Waning Gibbous
Feb 14
Last Quarter
Feb 21
New
Mar 1
First Quarter
Mar 8
Full

Hourly Weather History & Observations

Time (GMT) Temp. Windchill Dew Point Humidity Pressure Visibility Wind Dir Wind Speed Gust Speed Precip Events Conditions
12:00 AM 42 °F - 41 °F 93% 30.61 in 12 mi WNW 8.9 mph - - Rain Light Drizzle
12:00 AM 42.8 °F 38.0 °F 41.0 °F 93% 30.60 in 6.2 mi WNW 8.1 mph - N/A   Light Drizzle
12:30 AM 41.0 °F 36.4 °F 41.0 °F 100% 30.60 in 6.2 mi West 6.9 mph - N/A   Mostly Cloudy
1:00 AM 42.8 °F 37.0 °F 41.0 °F 93% 30.57 in 6.2 mi West 10.4 mph - N/A   Mostly Cloudy
1:30 AM 42.8 °F 37.0 °F 39.2 °F 87% 30.57 in 6.2 mi West 10.4 mph - N/A   Mostly Cloudy
2:00 AM 41.0 °F 35.2 °F 39.2 °F 93% 30.57 in 6.2 mi WNW 9.2 mph - N/A   Mostly Cloudy
2:30 AM 41.0 °F 35.2 °F 39.2 °F 93% 30.54 in 6.2 mi West 9.2 mph - N/A   Mostly Cloudy
3:00 AM 41.0 °F 35.8 °F 39.2 °F 93% 30.54 in 6.2 mi West 8.1 mph - N/A   Mostly Cloudy
3:30 AM 41.0 °F 34.3 °F 39.2 °F 93% 30.54 in 6.2 mi West 11.5 mph - N/A   Mostly Cloudy
4:00 AM 41.0 °F 35.2 °F 41.0 °F 100% 30.54 in 6.2 mi WNW 9.2 mph - N/A   Mostly Cloudy
4:30 AM 42.8 °F 37.0 °F 41.0 °F 93% 30.54 in 6.2 mi West 10.4 mph - N/A Rain Light Rain
5:00 AM 41.0 °F 34.3 °F 41.0 °F 100% 30.54 in 6.2 mi West 11.5 mph - N/A Rain Light Rain
5:30 AM 41.0 °F 34.3 °F 41.0 °F 100% 30.54 in 6.2 mi West 11.5 mph - N/A Rain Light Rain
6:00 AM 41 °F - 41 °F 99% 30.56 in 6 mi WNW 13.4 mph - - Rain Light Rain
6:00 AM 41.0 °F 33.5 °F 41.0 °F 100% 30.54 in 6.2 mi WNW 13.8 mph - N/A Rain Light Rain
6:30 AM 41.0 °F 34.7 °F 41.0 °F 100% 30.54 in 6.2 mi WNW 10.4 mph - N/A Rain Light Rain
7:00 AM 41.0 °F 34.7 °F 39.2 °F 93% 30.51 in 6.2 mi West 10.4 mph - N/A Rain Light Rain
7:30 AM 41.0 °F 34.3 °F 39.2 °F 93% 30.51 in 6.2 mi WNW 11.5 mph - N/A   Mostly Cloudy
8:00 AM 41.0 °F 33.5 °F 39.2 °F 93% 30.48 in 6.2 mi West 13.8 mph - N/A   Mostly Cloudy
8:30 AM 41.0 °F 32.8 °F 39.2 °F 93% 30.48 in 6.2 mi West 16.1 mph - N/A   Mostly Cloudy
9:00 AM 41.0 °F 32.8 °F 39.2 °F 93% 30.48 in 6.2 mi West 16.1 mph - N/A   Mostly Cloudy
9:30 AM 41.0 °F 32.8 °F 41.0 °F 100% 30.45 in 6.2 mi West 16.1 mph - N/A   Mostly Cloudy
10:00 AM 42.8 °F 34.5 °F 41.0 °F 93% 30.48 in 6.2 mi West 18.4 mph - N/A   Mostly Cloudy
10:30 AM 42.8 °F 34.5 °F 41.0 °F 93% 30.48 in 6.2 mi West 18.4 mph - N/A   Mostly Cloudy
11:00 AM 44.6 °F 36.9 °F 42.8 °F 93% 30.45 in 6.2 mi West 18.4 mph - N/A   Mostly Cloudy
11:30 AM 44.6 °F 37.4 °F 42.8 °F 93% 30.45 in 6.2 mi WNW 16.1 mph - N/A   Mostly Cloudy
12:00 PM 45 °F - 44 °F 92% 30.49 in 9 mi NW 11.2 mph - - Rain Light Rain
12:00 PM 44.6 °F 39.2 °F 42.8 °F 93% 30.48 in 6.2 mi WNW 10.4 mph - N/A Rain Light Rain
12:30 PM 46.4 °F 40.1 °F 44.6 °F 93% 30.48 in 6.2 mi NW 15.0 mph - N/A   Mostly Cloudy
1:00 PM 46.4 °F 40.4 °F 42.8 °F 87% 30.45 in 6.2 mi WNW 13.8 mph - N/A   Mostly Cloudy
1:30 PM 46.4 °F 38.7 °F 41.0 °F 81% 30.42 in 6.2 mi NW 20.7 mph - N/A   Mostly Cloudy
2:00 PM 46.4 °F 39.0 °F 41.0 °F 81% 30.42 in 6.2 mi NW 19.6 mph - N/A   Mostly Cloudy
2:30 PM 46.4 °F 38.7 °F 42.8 °F 87% 30.42 in 6.2 mi NW 20.7 mph - N/A   Mostly Cloudy
3:00 PM 46.4 °F 40.1 °F 42.8 °F 87% 30.42 in 6.2 mi NW 15.0 mph - N/A   Mostly Cloudy
3:30 PM 46.4 °F 39.2 °F 41.0 °F 81% 30.42 in 6.2 mi NW 18.4 mph - N/A   Mostly Cloudy
4:00 PM 46.4 °F 41.9 °F 41.0 °F 81% 30.45 in 6.2 mi NW 9.2 mph - N/A   Mostly Cloudy
4:30 PM 46.4 °F 39.8 °F 41.0 °F 81% 30.45 in 6.2 mi NW 16.1 mph - N/A   Mostly Cloudy
5:00 PM 46.4 °F 40.7 °F 39.2 °F 76% 30.45 in 6.2 mi NW 12.7 mph - N/A   Mostly Cloudy
5:30 PM 46.4 °F 40.7 °F 39.2 °F 76% 30.45 in 6.2 mi NNW 12.7 mph - N/A   Mostly Cloudy
6:00 PM 46 °F - 39 °F 67% 30.48 in 25 mi NNW 13.4 mph - -   Partly Cloudy
6:00 PM 44.6 °F 37.8 °F 39.2 °F 81% 30.45 in 6.2 mi NNW 15.0 mph - N/A   Mostly Cloudy
6:30 PM 44.6 °F 38.4 °F 39.2 °F 81% 30.48 in 6.2 mi NW 12.7 mph - N/A   Mostly Cloudy
7:00 PM 44.6 °F 38.1 °F 39.2 °F 81% 30.48 in 6.2 mi NW 13.8 mph - N/A   Mostly Cloudy
7:30 PM 44.6 °F 36.6 °F 39.2 °F 81% 30.48 in 6.2 mi NNW 19.6 mph - N/A   Mostly Cloudy
8:00 PM 44.6 °F 36.4 °F 37.4 °F 76% 30.45 in 6.2 mi NNW 20.7 mph - N/A   Mostly Cloudy
8:30 PM 44.6 °F 36.4 °F 37.4 °F 76% 30.45 in 6.2 mi NNW 20.7 mph - N/A   Mostly Cloudy
9:00 PM 44.6 °F 36.6 °F 37.4 °F 76% 30.48 in 6.2 mi NNW 19.6 mph - N/A   Mostly Cloudy
9:30 PM 44.6 °F 37.2 °F 39.2 °F 81% 30.48 in 6.2 mi NW 17.3 mph - N/A   Mostly Cloudy
10:00 PM 44.6 °F 37.4 °F 39.2 °F 81% 30.48 in 6.2 mi NW 16.1 mph - N/A   Mostly Cloudy
10:30 PM 44.6 °F 38.1 °F 39.2 °F 81% 30.48 in 6.2 mi NNW 13.8 mph - N/A   Mostly Cloudy
11:00 PM 42.8 °F 33.5 °F 39.2 °F 87% 30.45 in 6.2 mi NW 23.0 mph - N/A   Mostly Cloudy
11:30 PM 44.6 °F 35.7 °F 39.2 °F 81% 30.48 in 6.2 mi NW 24.2 mph 36.8 mph N/A   Mostly Cloudy